Showing default

YUNYAO-1 47, 63348

Orbit data source: Space-Track

YUNYAO-1 47, 63348 is a payload satellite in SSO that was launched on Fri, 21 Mar 2025 UTC via a GUSHENXING 1 launch vehicle from the Jiuquan Satellite Launch Center, China (JSC). Payload-class satellites include a variety of spacecraft equipped with specific instruments for various scientific and technological missions. These include communications satellites like Starlink; space stations such as the ISS; scientific satellites like the Hubble; Earth observation satellites from companies like Planet Labs, Umbra, and HawkEye 360; GPS; miniature CubeSats for education and research; and military/defense satellites.

Loading next visibility...
Identifier
63348, 2025-059E
Orbit
SSO
Last TLE update
5 hours ago
Origin
Manufacturer
Changguang WJ
Mission
Operational spacecraft
Bus & Motor
YY-1, Unknown motor
Mass
~50 kg wet, ~50 kg dry
Launch date (UTC)
2025-03-21 (2 months ago)
Launch vehicle
GUSHENXING 1
Launch site
Jiuquan Satellite Launch Center, China (JSC)
Object type
Payload
Rocket body
Debris
Shape & HBR
Unknown
Radar Cross Section
Medium (>0.1 m² and <1 m²)

Expand to show TLE details & history

TLE from 5 hours ago
0 YUNYAO-1 47
1 63348U 25059E   25140.48301893  .00003366  00000-0  20935-3 0  9993
2 63348  97.5985 320.1675 0014934  85.9022 274.3914 15.10223667  9057
Epoch: 2025-05-20T11:35Z
TLE epoch observation values (Epoch: 2025-05-20T11:35:32.835Z)
Latitude
-0.00002°
Longitude
-92.09995°
Altitude
537.813 km
Speed
7.594 km/s
True Right ascension
21h 20m 40s
True Declination
0° 00' 00"
Sunlit
Object was in daylight at epoch
Visualization orbit readout
Latitude
47.42093°
Longitude
-100.19561°
Altitude
534.712 km
Speed
7.604 km/s
Apparent Right ascension
17h 00m 59s
Apparent Declination
10° 16' 10"
Sunlit
Object is in daylight
Visualization observer readout
Local Sidereal Time
01:28:17
Azimuth
303.185° NW
Elevation
-19.75°
Doppler factor
1
Orbital elements
Apogee altitude
542.825 km
Perigee altitude
522.184 km
Semi-major axis
6,910.641 km
Eccentricity
0.00149
Inclination
97.5985°
RAAN
320.1675°
Arg. of periapsis
85.9022°
True anomaly
Unknown
Mean anomaly
274.3914°
Eccentric anomaly
Unknown
Mean motion
3.77803 °/min
Orbital period
95.29 mins
BSTAR
0.00020935
Loading maneuver chart data...
Loading SW <> Apogee altitude chart data...
Loading historical data...
Loading historical data...
Loading historical data...
Loading historical data...
Loading historical data...
Loading historical data...
Loading historical data...
Other satellites on launch #59 in the year 2025 (2025-03-21 UTC)

YUNYAO-1 47 Visibility forecast

Observer location: undefined°, undefined°

Span
Click to sort rows by Start time (UTC) header in descending order
Start Az.
Max El. time (UTC)
Max El. Az.
Max El.
End time (UTC)
End Az.
7 mins2025-05-21 00:52:24.913Z10.463° NNE2025-05-21 00:55:24.913Z349.545° N44.001°2025-05-21 00:59:24.913Z195.556° SSW
5 mins2025-05-21 11:35:24.913Z135.085° SSE2025-05-21 11:37:24.913Z84.704° E33.746°2025-05-21 11:40:24.913Z6.997° NNE
|